TimePST,TemperatureF,Dew PointF,Humidity,Sea Level PressureIn,VisibilityMPH,Wind Direction,Wind SpeedMPH,Gust SpeedMPH,PrecipitationIn,Events,Conditions,WindDirDegrees,DateUTC
12:15 AM,5.0,1.4,85,29.82,10.0,Calm,Calm,-,N/A,,Scattered Clouds,0,2013-12-04 08:15:00
12:35 AM,5.0,1.4,85,29.82,10.0,Calm,Calm,-,N/A,,Clear,0,2013-12-04 08:35:00
12:55 AM,1.4,-2.2,85,29.81,10.0,Calm,Calm,-,N/A,,Clear,0,2013-12-04 08:55:00
1:15 AM,5.0,-0.4,78,29.82,10.0,Calm,Calm,-,N/A,,Clear,0,2013-12-04 09:15:00
1:35 AM,3.2,-0.4,85,29.82,10.0,Calm,Calm,-,N/A,,Clear,0,2013-12-04 09:35:00
1:55 AM,3.2,-0.4,85,29.82,10.0,Calm,Calm,-,N/A,,Clear,0,2013-12-04 09:55:00
2:15 AM,1.4,-0.4,92,29.83,10.0,Calm,Calm,-,N/A,,Clear,0,2013-12-04 10:15:00
2:35 AM,1.4,-0.4,92,29.84,10.0,Calm,Calm,-,N/A,,Clear,0,2013-12-04 10:35:00
2:55 AM,1.4,-2.2,85,29.84,10.0,Calm,Calm,-,N/A,,Clear,0,2013-12-04 10:55:00
3:15 AM,-2.2,-5.8,85,29.84,10.0,SSE,3.5,-,N/A,,Clear,160,2013-12-04 11:15:00
3:35 AM,-0.4,-2.2,92,29.84,10.0,South,3.5,-,N/A,,Clear,170,2013-12-04 11:35:00
3:55 AM,-0.4,-5.8,78,29.84,10.0,Calm,Calm,-,N/A,Snow,Light Snow,0,2013-12-04 11:55:00
4:15 AM,-0.4,-4.0,85,29.84,10.0,Calm,Calm,-,N/A,,Overcast,0,2013-12-04 12:15:00
4:35 AM,-0.4,-2.2,92,29.85,10.0,Calm,Calm,-,N/A,,Overcast,0,2013-12-04 12:35:00
4:55 AM,-0.4,-4.0,85,29.86,10.0,Calm,Calm,-,N/A,,Overcast,0,2013-12-04 12:55:00
5:15 AM,-0.4,-2.2,92,29.86,10.0,SSE,3.5,-,N/A,,Scattered Clouds,160,2013-12-04 13:15:00
5:35 AM,-0.4,-4.0,85,29.86,10.0,Calm,Calm,-,N/A,,Clear,0,2013-12-04 13:35:00
6:45 AM,-4.0,-9.4,78,29.88,10.0,South,3.5,-,N/A,,Partly Cloudy,190,2013-12-04 14:45:00
7:55 AM,-2.2,-5.8,85,29.89,10.0,Calm,Calm,-,N/A,,Clear,0,2013-12-04 15:55:00
11:50 AM,19.4,10.4,68,29.89,10.0,North,5.8,-,N/A,,Clear,350,2013-12-04 19:50:00
12:50 PM,21.2,10.4,63,29.87,10.0,NNE,8.1,-,N/A,,Partly Cloudy,20,2013-12-04 20:50:00
1:45 PM,23.0,10.4,59,29.86,10.0,North,8.1,-,N/A,,Partly Cloudy,10,2013-12-04 21:45:00
2:45 PM,23.0,10.4,59,29.86,10.0,NNE,8.1,-,N/A,,Scattered Clouds,30,2013-12-04 22:45:00
3:50 PM,44.6,10.4,25,29.87,10.0,NNE,6.9,-,N/A,,Scattered Clouds,20,2013-12-04 23:50:00
4:45 PM,15.8,8.6,73,29.88,10.0,North,5.8,-,N/A,,Scattered Clouds,350,2013-12-05 00:45:00
4:55 PM,14.0,8.6,79,29.89,10.0,North,4.6,-,N/A,,Clear,10,2013-12-05 00:55:00
5:15 PM,14.0,8.6,79,29.89,10.0,North,4.6,-,N/A,,Mostly Cloudy,360,2013-12-05 01:15:00
5:35 PM,15.8,10.4,79,29.90,10.0,North,4.6,-,N/A,,Overcast,360,2013-12-05 01:35:00
5:55 PM,15.8,10.4,79,29.90,10.0,NNE,4.6,-,N/A,Snow,Light Snow,30,2013-12-05 01:55:00
6:15 PM,15.8,10.4,79,29.90,10.0,North,3.5,-,N/A,Snow,Light Snow,10,2013-12-05 02:15:00
6:35 PM,15.8,10.4,79,29.91,10.0,NNW,3.5,-,N/A,Snow,Light Snow,340,2013-12-05 02:35:00
6:55 PM,15.8,10.4,79,29.91,10.0,North,4.6,-,N/A,,Overcast,10,2013-12-05 02:55:00
7:15 PM,15.8,10.4,79,29.92,10.0,Calm,Calm,-,N/A,Snow,Light Snow,0,2013-12-05 03:15:00
7:35 PM,14.0,8.6,79,29.92,10.0,NNE,4.6,-,N/A,,Overcast,30,2013-12-05 03:35:00
7:55 PM,14.0,8.6,79,29.92,10.0,NNE,3.5,-,N/A,,Overcast,20,2013-12-05 03:55:00
8:15 PM,14.0,8.6,79,29.93,10.0,North,4.6,-,N/A,,Overcast,360,2013-12-05 04:15:00
8:35 PM,14.0,8.6,79,29.93,10.0,Calm,Calm,-,N/A,,Overcast,0,2013-12-05 04:35:00
8:55 PM,10.4,8.6,92,29.94,10.0,Calm,Calm,-,N/A,,Mostly Cloudy,0,2013-12-05 04:55:00
9:15 PM,12.2,8.6,85,29.94,10.0,North,3.5,-,N/A,,Mostly Cloudy,360,2013-12-05 05:15:00
9:35 PM,10.4,8.6,92,29.95,10.0,NNE,3.5,-,N/A,,Overcast,20,2013-12-05 05:35:00
9:55 PM,12.2,8.6,85,29.95,10.0,Calm,Calm,-,N/A,,Overcast,0,2013-12-05 05:55:00
10:15 PM,14.0,8.6,79,29.95,10.0,North,3.5,-,N/A,,Overcast,350,2013-12-05 06:15:00
10:35 PM,14.0,8.6,79,29.95,10.0,Calm,Calm,-,N/A,,Overcast,0,2013-12-05 06:35:00
10:55 PM,14.0,8.6,79,29.95,10.0,Calm,Calm,-,N/A,,Overcast,0,2013-12-05 06:55:00
11:15 PM,14.0,8.6,79,29.96,10.0,Calm,Calm,-,N/A,Snow,Light Snow,0,2013-12-05 07:15:00
11:35 PM,14.0,8.6,79,29.96,10.0,Calm,Calm,-,N/A,,Overcast,0,2013-12-05 07:35:00
11:55 PM,14.0,8.6,79,29.95,10.0,Calm,Calm,-,N/A,,Overcast,0,2013-12-05 07:55:00